Location: Auckland
(36.8670°S, 174.7670°E)
Time: 21:29:22
(UTC+13:00)

Aureole 3 Rocket - Pass Details

Date: 24 January 2019
Orbit: 399 x 1740 km, 82.5° (Epoch: 17 October)

Event Time Altitude Azimuth Distance (km) Brightness Sun altitude
Rises 21:46:26 0° 188° (S) 2,487 6.9 -12.6°
Reaches altitude 10° 21:48:18 10° 187° (S) 1,688 5.9 -12.9°
Maximum altitude 21:51:54 89° 256° (WSW) 581 2.9 -13.5°
Drops below altitude 10° 21:56:38 10° 5° (N) 2,204 5.5 -14.2°
Enters shadow 21:56:40 10° 5° (N) 2,214 5.5 -14.2°
